Theta_e
309 309 309 309 309 309 309 309 309 309 309 309 309 308 308 307 308 307 308 308 307 308 308 308 309 311 313 314 314 314 314 313 313 315 318 319 317 320 319 317 316 315 313 312 315 318 317 315 316 315 316 320 321 323 323 323 328 332 332 325 324 327 327 332 329 322 325 326 321 318 319 318 319 319 316 314 316 316 316 318 318 317 315 313 314 313 312 311
309 308 308 308 308 308 309 309 309 309 309 309 309 309 309 308 308 307 307 308 308 308 308 308 308 310 313 314 314 315 314 314 315 316 317 316 318 321 320 317 316 315 313 313 316 317 316 317 315 315 319 323 324 322 322 324 326 331 333 326 327 332 331 328 323 321 321 320 321 321 319 318 319 320 316 315 319 317 316 317 316 317 316 312 311 310 310 309
308 308 308 308 308 308 308 308 308 308 309 309 309 309 309 309 308 308 308 307 308 308 308 308 307 309 311 314 315 314 315 316 320 321 318 317 319 321 320 317 315 314 312 314 319 319 317 317 315 316 320 321 324 324 325 324 324 330 329 326 332 333 327 325 321 319 319 318 320 320 318 317 318 318 315 316 319 318 317 316 316 317 317 315 311 308 308 308
309 308 308 308 308 308 307 307 307 308 308 308 308 308 308 309 308 308 308 308 308 308 308 308 308 308 310 314 314 315 319 321 324 323 319 320 320 320 319 316 314 312 312 313 317 317 316 316 314 317 319 320 324 326 328 326 324 327 324 325 332 327 322 324 321 319 320 319 319 320 318 317 318 317 315 317 318 317 316 315 316 317 315 315 312 308 306 306
309 309 309 308 308 308 307 307 307 307 307 307 307 308 308 308 309 308 308 308 308 308 308 308 308 308 310 314 314 317 320 318 322 321 318 320 320 319 318 315 313 311 312 312 314 315 315 315 315 319 319 321 324 324 328 328 323 324 322 323 327 323 321 322 320 321 321 318 319 320 318 317 318 317 316 318 317 316 316 315 315 315 316 314 312 308 306 306
310 310 309 309 309 308 308 308 307 307 307 307 307 307 307 307 308 308 308 308 308 308 308 308 308 308 311 314 314 317 318 314 320 321 316 317 317 318 316 313 312 310 312 313 314 315 316 316 316 320 321 320 323 322 325 325 321 324 323 322 322 321 321 320 319 321 320 316 318 318 317 317 317 317 317 317 316 316 317 318 317 315 313 311 310 309 308 308
311 311 310 310 310 309 309 308 308 307 307 307 307 307 307 307 308 308 309 308 308 308 308 308 308 308 312 315 317 321 322 321 321 318 316 316 316 316 313 311 311 310 312 313 314 316 318 318 318 321 321 320 322 321 321 320 321 323 323 321 320 320 320 319 318 320 320 317 318 318 315 316 316 317 317 316 315 315 316 318 319 315 311 311 312 310 310 309
312 312 311 311 311 310 310 309 308 308 308 308 308 308 308 308 308 308 308 308 308 309 308 308 309 310 311 317 323 327 326 323 319 316 316 315 314 314 312 311 310 311 312 313 315 316 318 319 319 319 320 321 320 320 320 319 320 322 322 320 319 319 319 319 318 319 320 318 318 317 316 316 316 316 315 315 315 314 315 315 316 315 314 315 315 312 310 310
313 313 312 312 312 311 311 310 309 309 308 308 308 308 308 308 308 308 309 309 309 308 309 309 309 311 312 316 323 323 322 322 319 318 317 314 313 312 311 311 310 311 312 313 314 314 317 320 320 319 320 321 319 319 319 318 321 321 319 319 317 317 317 317 317 316 318 318 317 316 316 316 315 314 314 314 314 314 314 315 316 315 315 316 316 313 311 311
314 314 314 313 313 312 312 311 310 309 309 308 308 308 308 309 308 309 309 309 309 308 309 309 309 312 313 316 321 319 318 321 320 319 318 314 313 311 311 312 311 311 312 314 314 313 316 319 321 320 319 319 318 319 319 318 320 318 317 318 317 316 316 315 316 316 316 316 316 316 316 315 314 314 314 315 315 314 314 315 315 315 315 315 315 313 311 311
315 315 315 314 314 313 312 311 310 309 308 308 308 308 308 309 308 308 309 309 309 308 309 310 309 312 315 318 323 320 317 318 318 317 316 315 313 311 312 312 312 311 313 314 313 314 315 316 318 319 317 317 317 318 319 318 316 316 316 317 317 315 316 315 315 315 314 315 316 316 315 315 314 314 314 314 315 316 316 316 315 314 315 314 314 313 311 311
315 314 314 315 314 314 314 312 311 309 308 307 307 307 307 307 307 307 308 309 309 308 309 311 310 312 317 321 323 319 315 317 317 315 315 314 314 313 312 312 312 312 314 315 315 316 316 316 317 317 318 317 316 317 316 315 314 315 315 315 316 315 315 315 315 315 314 315 316 314 315 316 314 314 315 314 314 315 316 316 316 315 314 314 314 312 312 310
315 315 315 315 315 315 315 313 311 310 309 308 307 307 307 307 306 306 307 308 309 308 308 311 311 312 316 321 321 317 315 316 316 315 314 313 313 313 313 312 312 311 313 315 317 318 317 316 317 318 319 317 317 316 314 314 314 315 315 315 316 315 316 315 314 316 314 314 316 314 315 317 315 314 314 313 313 314 315 314 314 315 314 314 314 313 313 311
316 317 316 316 315 315 314 312 310 309 308 308 308 308 308 307 307 306 305 307 308 309 310 311 312 314 318 321 318 316 317 316 315 314 313 313 312 313 313 312 312 310 311 313 314 316 316 314 315 316 316 316 317 315 315 316 316 315 315 316 317 317 319 317 315 317 315 314 315 315 315 316 316 315 314 313 313 313 313 314 313 313 313 313 314 314 313 312
317 316 316 315 315 315 313 311 310 309 309 308 308 308 309 309 307 306 305 306 307 309 312 312 314 317 320 320 317 316 316 315 315 314 314 313 313 313 312 311 311 311 311 311 312 313 314 313 314 316 316 315 315 315 318 320 318 317 316 318 320 318 318 317 316 316 316 314 312 315 316 315 315 315 314 313 313 313 313 313 313 312 313 312 313 313 313 313
316 316 315 315 315 314 312 311 310 309 309 308 308 309 309 309 308 307 306 306 307 309 311 313 315 317 317 316 316 316 314 314 314 314 315 313 313 315 313 311 312 312 312 312 312 312 312 314 315 316 316 314 316 318 319 321 322 320 316 317 320 320 316 317 318 316 317 316 312 314 317 316 316 316 316 314 313 314 313 314 314 313 313 312 312 312 313 313
315 315 315 315 314 313 312 311 310 309 309 309 308 309 310 310 309 308 307 308 310 310 312 316 317 314 313 313 314 316 315 314 314 315 315 313 314 316 314 313 313 313 312 312 312 312 313 315 315 316 317 316 319 321 320 320 321 319 318 317 318 318 316 317 321 317 315 316 314 313 314 315 316 316 317 316 314 314 315 315 314 314 313 312 312 312 312 312
315 315 315 314 313 311 311 312 310 309 308 308 308 309 310 310 310 311 309 311 314 313 312 317 316 313 314 316 315 317 317 315 315 315 314 313 315 316 314 313 314 313 313 313 314 314 313 315 316 318 319 317 317 318 319 318 316 318 321 321 319 318 316 316 318 317 315 315 315 314 313 313 314 314 314 314 313 313 315 316 315 315 314 313 312 312 312 312
315 315 314 313 312 311 311 311 310 308 307 307 308 308 311 314 314 313 312 314 318 316 314 316 317 315 316 319 317 317 317 316 316 315 313 313 314 316 314 313 315 314 315 317 316 315 315 316 318 320 319 316 315 315 316 316 313 318 322 321 319 318 315 315 316 317 317 315 315 315 313 313 313 312 312 312 312 312 313 314 314 314 314 313 313 312 312 312
315 315 314 313 312 311 311 310 310 309 309 309 310 312 316 320 319 316 314 317 320 318 316 315 316 317 316 318 318 316 317 316 316 316 313 312 313 314 314 313 316 316 316 321 320 317 316 317 319 321 318 315 315 314 314 315 314 316 318 317 317 316 315 314 315 317 317 317 317 317 315 314 314 313 313 312 312 313 313 312 312 312 312 313 313 313 313 312
315 315 315 314 313 312 311 311 311 311 311 312 313 316 318 316 316 315 312 314 315 313 316 315 312 315 315 316 316 316 318 315 314 315 312 311 312 313 314 313 317 318 316 319 322 319 316 317 318 318 316 315 316 316 314 314 314 315 316 316 316 316 316 315 316 317 316 316 315 316 315 314 314 313 313 313 312 313 313 313 312 312 312 312 313 312 313 313
315 316 315 315 315 314 313 312 313 313 312 311 312 316 314 309 310 311 309 312 313 310 313 315 312 312 312 314 316 314 316 315 315 316 314 311 312 314 313 313 316 318 316 316 318 318 317 317 316 315 315 315 316 317 315 314 315 316 316 317 317 317 316 315 316 316 315 315 318 318 315 313 313 313 312 312 312 313 313 313 313 313 313 312 312 312 313 313
316 316 315 315 315 316 315 313 313 313 310 310 312 312 309 307 307 308 310 315 316 312 312 313 312 312 311 312 314 314 314 314 315 319 315 311 312 314 313 312 314 316 317 316 315 316 317 318 316 314 316 316 316 315 315 315 315 316 316 317 317 317 316 315 315 316 314 315 319 318 315 312 312 312 312 312 312 312 313 313 314 314 314 313 313 313 313 312
316 316 315 315 315 316 316 314 314 313 310 312 312 309 307 306 306 308 314 318 316 314 313 310 310 311 312 312 313 315 315 313 313 316 314 312 313 314 313 312 313 314 315 315 314 314 314 317 319 317 315 317 317 316 316 315 315 316 317 316 316 316 316 315 314 317 317 317 318 315 314 314 314 314 314 314 313 313 313 313 313 314 314 314 314 314 314 314
316 316 316 315 315 317 317 315 315 313 311 313 312 309 307 306 306 308 313 318 317 316 313 310 310 311 311 312 313 314 313 311 313 315 313 312 312 313 313 311 312 313 313 313 314 313 312 315 319 319 318 318 317 316 318 318 315 314 316 318 316 316 316 316 317 317 319 322 319 316 317 316 316 317 314 314 314 313 313 313 313 313 313 313 313 313 314 314
317 316 316 316 315 316 317 317 316 314 314 314 311 311 309 306 306 307 311 316 318 316 314 312 312 312 312 312 312 313 312 311 314 314 312 312 312 313 312 312 313 313 313 313 313 313 313 314 316 318 321 322 319 319 321 319 315 314 320 323 319 317 318 318 319 319 323 327 321 319 322 318 317 318 316 316 318 317 316 315 314 313 313 313 313 314 313 314
317 317 316 316 315 315 317 318 317 315 316 315 311 310 309 308 307 307 311 317 319 317 316 314 312 312 312 311 310 312 313 312 312 312 311 311 312 313 312 312 313 312 313 315 314 315 314 314 318 319 320 322 319 318 321 320 316 316 323 328 323 321 322 321 321 323 326 324 318 320 323 319 317 316 317 318 319 319 318 316 316 314 314 314 314 315 314 315
317 317 317 316 315 315 315 316 315 315 316 314 310 308 308 307 307 309 314 318 320 318 317 315 311 311 313 311 311 312 310 310 313 312 308 309 311 313 313 312 313 313 315 316 315 318 319 317 321 322 319 320 318 317 320 320 317 318 321 324 322 322 322 321 319 322 325 320 317 320 319 318 317 315 316 316 315 316 315 315 317 315 315 315 314 315 314 315
319 318 317 317 316 315 315 315 315 315 316 313 309 308 308 307 307 311 317 319 318 317 315 313 311 312 314 312 313 314 310 309 312 311 307 309 310 311 312 312 311 312 314 315 314 316 320 318 319 322 320 319 320 323 324 321 319 319 319 322 327 329 324 320 317 318 322 320 318 320 318 316 317 315 316 315 314 315 314 313 314 314 315 315 314 315 314 315
324 321 319 318 317 317 315 315 315 317 317 313 308 307 308 309 309 313 320 319 317 316 312 310 311 313 314 313 314 314 312 310 309 309 310 311 311 310 310 310 312 316 316 316 316 315 314 312 314 320 319 319 322 320 316 317 318 316 317 321 327 333 328 324 323 319 318 318 319 321 319 316 317 318 317 315 316 318 315 314 314 313 315 314 314 315 313 314
325 324 322 319 318 318 316 316 317 317 317 313 309 309 311 313 312 318 323 320 317 318 313 311 312 313 313 315 316 313 312 312 310 311 313 311 311 311 311 311 313 319 318 316 316 315 313 312 315 320 319 320 320 315 313 317 316 315 321 322 323 330 330 326 324 320 317 318 319 320 320 317 316 317 317 316 317 317 315 316 318 318 318 315 314 315 314 314
323 323 323 321 320 319 316 317 317 317 317 312 310 316 321 318 316 321 323 320 320 320 317 318 316 314 314 314 316 316 313 314 311 312 315 315 314 313 312 313 315 316 318 319 317 316 316 314 315 316 317 318 318 317 320 321 316 315 321 321 319 324 324 321 323 323 320 319 318 317 317 316 315 316 316 316 318 318 316 318 320 321 322 318 317 318 315 315
322 322 322 321 320 319 318 318 317 317 317 313 313 321 324 322 323 325 322 321 324 321 319 324 320 317 318 316 319 320 315 315 313 310 314 315 314 314 313 314 316 316 320 321 317 318 323 320 315 313 315 317 317 317 318 320 317 315 318 320 320 320 319 319 324 326 321 321 321 316 316 317 316 318 319 315 315 317 316 316 318 320 322 321 323 323 318 319
321 321 321 320 320 320 319 318 316 316 315 314 317 322 321 323 328 327 324 323 322 318 319 324 321 317 318 318 323 322 315 318 316 310 313 314 314 317 317 315 315 315 317 319 319 321 323 321 317 317 319 318 315 314 316 320 319 314 316 319 318 323 326 322 324 323 319 326 327 316 318 322 317 318 321 317 314 315 316 316 316 316 317 317 321 322 321 326
320 320 321 320 319 319 319 318 316 315 314 314 318 320 321 325 327 325 327 326 321 319 318 320 320 319 320 321 325 322 316 320 318 312 315 315 315 320 320 315 312 313 316 318 322 321 318 320 319 316 319 318 314 314 315 320 320 315 318 318 314 321 326 318 321 322 317 323 324 316 322 327 317 313 317 316 315 315 315 316 314 315 315 316 317 318 323 330
319 319 320 319 319 319 319 318 316 314 314 316 318 319 320 325 326 325 327 324 319 320 318 318 321 322 323 325 325 322 317 319 318 315 315 314 315 318 318 315 312 312 313 316 322 320 316 322 321 313 314 315 314 315 314 317 320 316 316 317 314 319 320 316 322 324 316 317 318 315 320 322 316 315 316 315 315 314 315 314 314 317 316 316 316 315 325 336
317 318 318 318 319 319 319 318 316 314 314 316 318 319 320 322 324 324 323 320 316 318 319 320 321 321 322 323 325 325 321 320 318 317 318 316 316 316 316 316 314 311 312 314 319 322 318 318 319 316 316 314 312 314 315 316 317 316 318 317 315 319 320 320 325 325 319 318 318 316 317 315 315 317 317 316 315 316 318 316 315 316 315 315 314 315 327 336
316 317 318 318 318 319 319 318 315 313 313 316 318 320 320 321 321 320 319 318 318 319 322 322 322 321 323 322 323 324 322 321 320 318 321 319 317 318 317 316 317 313 311 311 316 323 322 316 318 319 318 315 312 313 316 314 312 316 320 317 317 320 321 321 322 321 319 318 318 317 316 315 314 314 314 316 317 317 319 316 313 313 313 314 314 314 321 328
315 317 318 318 318 319 319 316 313 312 314 316 318 319 320 320 319 317 317 317 317 318 320 322 322 321 322 321 320 320 321 322 320 320 320 318 318 320 318 317 318 315 312 311 313 318 319 316 318 319 315 314 313 314 318 317 313 314 316 316 316 318 321 323 320 319 320 318 317 317 317 316 315 315 314 315 317 318 317 315 315 315 313 312 313 314 318 327
316 319 319 317 318 318 317 314 312 313 316 318 318 318 319 318 318 317 316 316 318 319 317 318 319 318 320 322 318 317 319 320 320 319 320 318 317 318 317 314 315 315 314 312 312 314 317 317 316 316 314 313 313 315 318 318 316 315 315 317 315 313 319 321 317 317 318 316 316 317 316 315 314 316 315 312 315 317 316 317 317 317 318 317 317 319 325 334
316 319 318 317 317 317 314 313 313 315 316 318 318 317 316 317 318 318 316 314 317 319 316 315 316 316 317 320 318 316 317 319 319 318 317 317 317 317 316 311 310 312 314 315 316 316 317 318 316 317 315 313 314 316 317 317 318 317 315 316 315 313 316 317 315 317 317 315 316 316 316 315 313 316 315 312 314 315 314 315 317 321 327 331 331 331 334 337
315 318 317 316 316 315 313 314 315 314 315 316 317 316 315 316 317 317 316 315 316 316 316 317 317 317 316 317 318 317 318 319 320 319 318 318 317 318 317 314 311 311 311 316 319 316 316 317 317 317 317 318 319 317 315 316 317 316 315 315 315 314 314 315 316 316 316 316 315 315 316 316 313 315 315 312 313 314 313 313 316 320 325 330 332 333 333 332
314 316 314 314 315 314 314 316 315 314 313 314 314 314 315 316 316 316 316 317 317 317 318 318 318 318 317 317 317 318 319 320 320 320 320 319 318 317 316 316 315 313 312 316 319 316 315 316 315 315 318 322 323 317 313 312 312 313 315 315 315 314 313 314 314 313 315 316 315 315 316 315 313 314 315 314 313 313 313 313 313 315 318 322 327 327 328 329
312 314 314 313 313 313 315 318 317 315 314 312 312 313 313 314 315 315 316 317 317 317 318 318 318 317 318 318 319 319 321 320 319 319 319 319 319 318 316 316 316 315 315 318 318 315 315 317 316 316 318 320 320 317 313 312 311 314 316 315 315 315 314 314 313 312 314 314 314 315 315 315 314 313 314 314 312 311 311 311 311 312 315 322 327 326 323 323
309 312 313 313 312 313 316 318 318 316 315 313 313 313 312 313 314 314 315 315 316 316 317 317 318 318 318 319 320 319 320 321 319 318 317 317 317 316 314 314 315 315 315 318 318 315 314 316 316 316 318 319 318 317 316 315 313 314 316 315 315 315 315 314 314 314 315 315 315 315 314 314 315 313 313 312 311 311 311 310 311 311 313 317 318 317 318 318
308 311 313 313 312 313 314 316 317 317 316 314 314 314 313 314 314 314 314 314 314 315 315 316 317 318 318 319 319 318 318 318 318 317 316 316 315 315 315 314 313 314 314 316 317 314 313 315 316 316 316 317 317 316 316 316 314 313 315 316 315 315 315 314 315 315 315 316 316 316 315 315 315 313 312 311 311 311 310 310 311 311 312 313 312 313 315 316
306 309 312 314 313 314 315 315 316 317 316 315 315 315 315 314 313 314 314 315 315 314 315 315 315 317 318 318 318 319 318 318 317 316 316 316 315 314 315 314 313 314 314 314 315 314 312 312 314 314 314 315 316 316 316 315 315 314 315 315 314 314 314 315 315 315 315 316 316 315 315 315 314 312 312 311 311 311 311 310 310 310 311 312 312 313 314 314
304 306 309 311 310 312 314 314 314 315 315 315 315 315 315 315 315 315 314 314 315 315 316 316 315 316 316 317 318 318 318 318 317 316 315 315 314 314 314 313 313 313 313 312 313 314 313 312 313 314 313 314 314 314 314 314 314 314 314 314 314 314 314 314 313 313 313 315 315 314 314 315 314 312 311 311 311 311 311 310 310 310 310 310 311 312 313 312
302 304 306 306 306 308 309 308 308 310 311 312 313 313 314 314 314 314 314 314 315 315 315 316 316 316 316 316 317 317 318 318 318 317 316 315 314 314 314 314 314 312 312 311 312 314 313 312 313 314 313 313 313 313 313 313 314 314 314 314 314 313 313 313 313 312 312 313 312 312 313 313 312 311 311 311 311 311 310 310 310 310 309 309 310 310 310 309
301 303 303 302 302 304 304 303 305 307 308 310 311 311 311 312 313 312 312 313 314 313 314 315 315 314 314 314 315 316 316 316 315 315 315 314 314 314 314 315 315 313 311 310 311 312 312 313 314 314 313 313 313 313 313 313 314 314 314 314 314 314 313 313 313 312 312 312 311 311 312 312 310 310 310 310 310 310 310 310 309 309 309 310 309 309 309 308
299 300 300 300 300 301 302 303 304 306 306 308 310 310 311 312 311 310 309 311 312 312 312 312 310 309 309 309 312 313 310 307 307 308 309 309 312 313 313 314 314 314 313 312 311 310 310 312 313 314 314 314 314 314 314 313 314 314 315 315 314 314 314 313 313 313 313 313 312 312 312 311 310 309 309 310 310 309 309 309 309 309 309 309 309 309 309 309
297 298 299 299 300 300 301 302 303 303 303 305 307 307 308 308 308 307 307 309 309 309 308 306 305 305 306 307 308 306 302 301 303 304 304 306 308 310 312 312 312 313 313 313 312 311 310 311 312 313 315 315 315 315 314 314 314 315 315 315 314 314 314 314 314 313 312 312 313 313 313 311 310 310 310 309 309 309 309 309 309 309 309 309 309 309 309 309
Wind_Speed
14 14 14 14 14 14 14 14 13 13 13 13 13 13 13 13 14 14 15 15 15 15 15 15 14 11 9 9 9 8 9 9 11 9 8 9 8 7 7 6 4 4 2 1 4 5 3 3 7 7 4 2 2 1 2 2 2 4 3 2 3 3 4 5 4 4 3 2 4 4 4 6 3 3 1 1 2 3 3 4 4 5 3 2 5 12 21 30
14 14 14 15 15 15 14 14 14 13 13 13 13 13 13 13 13 13 14 15 15 15 15 16 16 13 10 10 9 8 8 8 10 12 15 16 14 11 10 8 7 7 5 3 5 6 4 3 6 6 2 1 2 1 2 1 2 3 3 2 4 5 5 4 4 4 2 2 4 5 5 5 5 4 1 2 6 4 5 6 3 7 6 3 9 18 25 30
14 14 15 15 15 15 15 15 15 14 14 13 13 12 13 13 12 12 13 14 14 15 15 15 16 14 11 10 9 8 7 6 6 9 13 14 15 15 12 10 8 7 6 5 5 5 4 3 5 5 4 2 3 1 1 2 1 2 3 2 6 7 5 6 5 4 3 3 4 3 3 4 6 4 3 4 6 6 8 8 5 9 11 6 8 16 24 26
14 14 15 15 15 16 16 16 15 15 15 14 14 13 12 12 12 12 12 12 13 14 14 14 15 14 11 10 9 7 5 4 3 4 6 7 10 13 13 11 8 7 6 6 6 6 5 6 4 4 5 3 3 2 2 4 3 2 4 5 7 4 4 8 7 4 2 1 3 1 1 3 5 4 4 4 4 9 9 10 10 12 13 10 8 12 20 22
14 14 15 15 16 16 16 16 16 16 15 15 14 13 13 13 12 12 11 11 12 13 14 14 14 13 10 8 6 5 5 4 3 3 5 4 5 10 12 11 8 7 7 6 6 4 4 6 2 1 2 2 3 1 3 7 4 2 5 8 9 5 5 8 7 4 2 2 2 1 2 5 3 3 5 6 7 11 7 8 12 13 12 11 13 14 16 16
14 15 15 15 16 16 16 16 16 16 16 16 15 14 13 12 12 12 11 11 12 13 13 14 13 11 7 5 3 2 3 1 4 3 6 4 3 8 10 10 9 7 7 7 5 2 2 3 1 0 1 2 4 4 6 6 5 4 6 6 8 7 6 7 5 5 3 2 3 3 3 3 2 5 6 9 14 14 6 7 10 11 11 13 16 14 14 15
16 16 16 16 16 17 17 17 17 17 17 17 16 15 13 12 12 12 11 11 11 12 13 14 13 9 4 1 1 3 3 4 8 7 7 4 4 8 9 10 9 8 8 8 6 4 2 2 2 3 2 3 5 6 7 4 5 7 7 5 7 7 8 8 6 6 6 7 7 3 2 2 6 7 4 9 18 16 9 6 8 8 7 10 13 14 15 17
16 16 17 17 17 18 18 18 18 18 18 18 17 16 14 13 12 12 11 10 11 12 13 13 12 7 3 2 1 3 1 7 11 10 8 4 5 8 9 9 9 9 9 10 10 6 3 3 5 3 2 5 4 4 4 3 2 7 7 5 5 6 7 8 7 7 7 7 5 2 6 8 9 4 7 15 18 14 10 7 9 9 6 7 11 15 15 15
17 17 18 18 19 19 19 19 19 19 20 19 19 18 17 15 13 13 12 11 11 11 13 12 9 5 4 3 4 2 4 8 9 9 7 5 6 9 10 9 9 10 9 11 11 7 3 3 5 4 3 4 3 4 2 2 3 6 6 5 5 6 7 7 8 9 7 6 4 4 11 10 6 2 10 22 20 13 9 8 10 9 9 9 10 14 15 15
18 19 20 20 20 21 21 21 21 20 20 20 20 20 19 17 15 15 14 12 11 11 12 10 7 4 4 3 5 1 6 6 6 7 6 7 8 10 11 9 9 10 8 8 10 9 6 5 4 4 3 3 3 4 1 2 4 4 4 6 8 8 8 6 9 11 7 6 6 9 14 9 3 2 10 20 12 8 9 11 12 9 11 12 10 12 14 15
19 21 21 21 22 23 23 24 23 21 21 21 21 20 20 19 18 17 16 14 11 11 11 7 5 4 5 3 5 4 7 6 7 6 6 8 10 11 12 11 10 11 9 6 9 10 8 6 3 4 1 2 2 4 4 3 2 3 4 8 12 8 9 10 11 13 6 5 8 11 11 8 1 5 15 21 6 4 8 11 11 10 12 12 11 11 10 12
19 21 21 23 24 25 26 26 24 22 22 21 21 21 20 19 18 17 18 17 13 11 10 6 4 5 4 1 5 9 9 8 8 7 7 8 9 11 12 12 11 11 10 6 6 8 7 5 3 4 3 1 1 4 4 2 2 4 2 6 14 8 10 16 13 11 6 4 7 8 5 9 6 12 21 23 8 3 8 10 10 10 11 11 11 10 9 12
19 20 22 24 26 27 27 26 24 23 22 22 22 21 20 19 17 16 17 17 15 12 10 7 6 6 4 2 7 13 14 12 10 9 9 9 9 10 12 13 12 11 11 8 6 5 4 5 5 5 4 1 2 2 1 1 2 4 1 2 10 8 9 15 9 7 7 5 9 10 3 9 12 18 22 19 11 7 10 12 12 10 10 10 10 10 11 13
18 19 22 25 26 27 28 25 23 23 22 22 22 21 20 18 17 16 15 16 15 12 9 6 5 5 4 5 7 10 14 13 12 12 12 11 10 10 11 12 11 11 11 10 8 5 5 4 3 2 2 2 3 4 4 3 1 3 2 2 4 3 8 11 3 3 3 4 9 10 4 11 14 16 16 13 10 10 11 14 13 11 10 9 9 10 12 13
17 19 23 24 25 27 26 23 22 22 22 22 22 22 20 18 17 16 16 16 13 10 7 5 6 5 0 6 7 7 11 11 13 16 13 13 13 9 10 12 10 9 9 9 8 5 5 3 3 1 2 1 0 3 4 4 3 1 2 5 3 4 8 11 5 5 6 4 6 9 4 12 16 15 13 10 9 10 11 14 13 11 12 11 10 10 12 14
17 20 22 22 24 26 24 22 22 22 22 22 23 22 20 19 18 16 17 15 12 10 7 4 7 6 1 5 3 4 8 9 12 16 13 14 14 9 10 10 7 7 6 6 5 4 5 4 2 2 1 2 1 2 2 4 5 2 4 6 6 5 6 8 7 6 9 5 4 9 6 9 11 10 11 7 7 10 10 13 13 12 12 11 11 10 11 13
18 19 20 21 23 24 22 21 22 22 22 23 24 23 21 19 17 17 15 10 6 7 8 3 3 5 3 3 3 5 8 10 12 15 14 15 13 10 11 7 5 7 5 3 4 4 4 3 1 1 0 2 3 5 3 3 7 4 3 5 7 7 5 5 7 3 6 7 7 11 8 12 13 9 9 8 5 7 9 11 13 12 11 10 10 11 12 13
18 18 18 20 21 21 21 21 21 21 22 23 23 23 21 18 14 12 6 4 4 3 4 3 1 2 4 5 6 4 6 10 13 14 16 15 12 12 11 4 4 7 5 1 2 3 2 1 2 1 2 3 4 5 4 9 9 4 4 4 5 7 7 9 9 2 6 5 7 8 8 16 20 14 13 12 8 7 8 10 11 11 11 11 11 12 13 13
17 17 17 19 20 20 21 20 20 21 22 22 21 19 16 11 6 2 4 8 6 3 2 5 4 3 4 5 6 3 5 9 11 11 14 14 12 12 8 2 4 6 4 1 2 4 4 1 3 3 5 8 8 9 12 14 8 5 6 5 6 7 7 12 12 5 7 5 6 10 11 16 20 18 17 16 12 10 10 10 10 11 11 12 12 13 12 13
15 15 16 18 19 20 20 19 20 21 21 22 21 15 6 4 3 2 2 3 5 5 3 4 8 5 5 2 3 5 5 7 7 8 13 15 12 9 4 1 4 2 3 4 3 3 6 4 4 7 12 14 10 11 15 13 8 7 8 8 9 8 10 13 13 7 7 6 8 12 15 17 19 19 17 14 10 10 12 12 12 12 12 13 16 16 14 15
13 14 15 17 19 20 20 21 20 18 17 18 17 9 2 3 2 2 3 5 10 13 11 9 12 11 8 3 8 10 6 4 5 5 13 15 12 9 3 3 4 3 5 5 2 1 4 6 8 14 17 11 8 11 13 12 10 11 10 10 10 8 12 14 11 8 6 5 8 12 14 16 18 19 15 10 8 10 14 14 15 15 14 14 16 18 18 15
12 13 14 15 17 19 20 20 16 15 16 16 13 5 3 4 1 1 1 4 9 13 14 12 13 12 11 9 10 12 4 5 7 4 13 14 9 7 4 5 6 5 4 4 3 3 4 7 12 16 13 7 6 9 10 11 11 10 8 8 9 7 10 13 10 8 4 5 8 10 12 14 15 17 15 11 10 12 14 15 17 15 14 15 16 17 18 15
13 13 12 13 15 18 20 17 12 14 18 16 11 5 4 6 2 1 1 2 8 10 9 11 13 11 11 12 11 12 7 9 10 7 16 16 6 6 5 7 8 4 5 8 8 7 6 7 12 13 9 8 11 9 8 8 7 8 8 8 8 7 8 10 7 5 3 5 6 7 9 10 10 13 14 14 13 13 15 17 17 15 14 17 18 16 16 16
13 13 12 12 13 16 19 14 9 16 18 12 8 7 9 7 3 3 1 2 5 7 8 12 13 9 13 13 12 16 9 8 7 6 18 18 5 3 5 7 7 4 6 12 14 13 11 8 8 11 11 12 14 11 8 6 7 11 12 10 11 11 12 13 7 4 4 5 5 5 9 9 9 14 16 13 11 13 15 16 16 15 15 17 18 16 16 17
13 13 12 12 12 15 18 10 9 18 15 6 6 9 13 9 5 5 3 3 4 5 6 7 6 5 11 9 11 12 4 3 4 4 16 18 8 4 3 4 5 7 11 11 12 12 12 8 6 8 10 12 13 10 7 7 8 13 11 12 16 15 14 14 8 7 5 6 4 1 7 9 7 13 16 9 7 10 10 12 16 15 15 15 16 16 16 15
13 13 12 12 11 14 15 6 10 19 9 3 6 11 13 10 7 6 3 2 5 3 1 2 2 3 5 3 6 5 4 4 3 2 13 15 9 5 3 3 3 7 9 7 7 5 7 8 8 9 10 10 10 7 7 11 9 11 7 11 15 12 11 10 6 3 3 6 4 3 1 9 6 7 11 8 8 11 10 10 14 13 13 13 13 14 13 11
13 13 12 11 10 11 8 4 12 15 4 3 10 12 12 10 7 5 2 3 5 2 3 1 1 1 2 1 3 6 1 4 2 3 6 7 5 3 4 6 4 4 5 3 4 4 5 6 8 13 11 8 8 8 9 12 8 8 2 7 9 8 9 7 4 5 4 4 5 2 3 7 12 7 10 11 11 11 10 10 12 13 13 14 14 13 13 11
15 14 12 10 9 8 6 6 11 8 4 8 12 10 10 9 6 2 2 4 4 3 2 2 1 1 1 2 1 3 2 1 2 1 2 1 1 2 5 9 6 4 4 5 6 5 3 5 8 11 9 7 8 8 9 11 8 5 2 5 5 5 5 2 2 4 2 4 5 4 6 3 14 8 8 10 11 10 11 12 14 14 14 14 15 14 14 12
16 15 13 11 10 10 9 8 7 5 7 10 10 8 7 7 4 3 3 3 3 2 1 0 1 2 2 2 3 0 2 3 1 3 4 1 1 1 4 6 3 4 3 5 9 5 1 4 7 7 6 8 6 2 5 10 8 3 5 4 5 3 2 4 1 1 3 5 7 5 7 3 14 9 6 5 6 8 10 12 13 13 13 14 13 13 14 12
17 16 15 12 11 12 10 10 12 8 6 8 8 7 6 5 2 3 2 5 1 1 0 1 1 1 3 3 2 2 1 2 2 2 3 1 2 4 1 2 1 2 4 4 7 7 2 1 2 4 4 5 4 3 1 3 4 1 5 4 6 5 5 4 1 4 2 9 6 9 11 7 9 6 6 5 6 10 10 8 9 10 10 12 12 12 14 11
20 18 17 16 16 14 7 8 12 8 3 4 6 5 3 2 3 2 7 3 1 2 1 1 1 2 3 3 1 2 2 1 1 1 0 0 2 3 1 1 2 2 3 5 7 8 5 2 2 3 3 5 6 3 2 4 2 3 4 4 4 5 4 5 5 5 2 10 5 12 13 11 10 6 3 3 5 7 9 8 9 10 11 12 11 11 13 10
21 21 21 20 21 19 12 9 9 9 6 0 4 3 2 1 1 6 6 3 1 3 2 2 3 3 3 1 2 2 3 1 1 4 3 2 1 2 2 4 3 2 3 5 5 5 6 8 7 2 1 6 6 2 3 6 3 4 4 5 1 4 3 3 4 1 4 8 5 9 9 8 12 7 2 7 8 6 8 8 10 11 11 11 10 12 12 7
20 21 22 23 23 23 22 18 12 11 9 5 6 4 4 2 4 7 4 0 3 3 2 3 4 5 5 2 2 5 3 3 4 4 3 4 3 4 4 4 5 2 3 4 3 2 5 8 5 4 3 5 9 6 4 3 3 6 6 6 5 3 1 2 4 3 5 7 6 5 6 5 9 4 7 13 13 12 10 9 11 11 11 12 11 12 11 6
19 19 21 24 25 25 26 24 19 16 10 7 6 4 4 4 5 3 3 5 5 3 1 1 2 4 5 3 5 5 3 5 5 6 3 4 2 4 4 7 8 4 1 1 2 2 3 9 5 9 4 7 13 13 11 5 4 7 6 6 5 5 4 4 5 6 6 6 5 3 5 4 5 2 8 12 11 10 8 10 11 9 10 10 9 11 10 6
17 17 19 23 24 25 26 24 22 19 11 7 4 3 4 7 4 1 2 4 4 5 5 1 3 3 4 4 5 5 5 6 4 6 4 5 4 4 4 6 10 7 3 2 3 4 5 11 7 7 2 9 13 12 10 7 1 4 5 4 3 5 6 4 6 6 2 4 6 3 4 6 4 5 7 8 9 9 8 8 7 7 10 8 9 12 8 5
12 12 15 20 22 24 25 25 23 20 13 6 3 3 5 7 4 4 3 3 2 2 5 4 1 4 4 3 3 4 5 4 3 4 3 4 4 5 4 4 10 12 9 6 3 3 5 7 4 2 1 5 7 4 5 6 3 2 4 5 5 4 6 4 6 3 1 4 7 4 5 6 5 7 7 4 6 7 6 7 6 10 12 10 11 12 6 5
7 6 9 14 19 21 24 27 26 21 12 5 4 6 6 5 3 4 2 1 1 2 3 3 2 3 3 2 3 3 3 3 3 4 2 3 3 5 7 5 8 15 16 11 5 4 7 6 4 4 2 3 3 2 2 3 4 6 4 6 3 3 2 3 2 2 1 6 7 7 10 8 6 8 5 6 6 7 8 9 10 11 10 9 12 11 5 5
6 5 7 12 17 19 23 28 27 18 7 3 8 8 5 4 3 4 2 3 4 5 3 3 3 2 4 4 5 3 2 3 4 4 3 3 4 5 6 5 6 13 19 16 6 4 5 6 5 2 2 2 2 2 3 4 3 5 3 3 3 1 2 2 3 3 5 8 7 10 14 9 7 7 4 4 6 9 10 9 9 9 9 8 11 11 7 5
4 3 5 6 9 15 24 30 24 12 4 4 8 7 4 4 3 3 2 2 2 4 5 6 5 5 7 7 5 2 3 5 4 3 3 3 4 4 5 4 5 9 16 15 8 5 3 5 6 1 1 1 2 1 5 2 0 1 1 2 1 3 4 3 4 4 5 9 8 10 12 10 9 6 3 7 8 8 9 7 6 8 8 8 9 9 7 5
3 3 3 4 9 18 27 27 15 5 4 5 6 6 3 2 3 3 3 2 2 3 4 5 4 4 5 4 3 2 2 2 1 1 2 3 4 3 2 1 3 4 7 8 7 5 1 4 7 2 3 1 1 4 7 6 4 2 1 3 3 3 1 1 3 2 5 8 7 8 9 10 8 4 7 5 2 4 6 3 5 7 6 8 7 7 7 6
3 3 2 6 16 26 26 16 5 4 4 3 5 6 4 2 2 3 3 2 2 2 1 1 3 3 3 4 4 2 1 2 0 1 2 3 5 3 2 4 5 7 6 3 4 3 1 4 6 2 1 5 7 6 9 11 9 7 7 7 7 6 4 4 7 5 4 6 5 7 9 10 8 3 6 5 4 5 6 4 6 7 7 7 7 7 8 7
4 4 2 10 25 32 20 5 3 4 3 4 3 4 2 2 4 5 4 3 3 3 2 2 4 5 5 6 6 4 2 2 3 3 4 5 6 5 3 3 4 5 4 3 4 3 1 1 5 5 5 7 8 4 6 11 9 6 5 6 6 6 5 7 9 6 4 4 4 7 8 10 9 3 3 7 4 3 5 5 6 7 6 6 7 7 7 7
4 3 2 14 31 30 11 3 4 3 3 3 2 3 2 2 3 4 5 4 4 4 4 4 6 8 8 8 7 5 4 4 7 8 7 7 8 10 12 15 12 5 3 2 3 5 4 1 3 6 5 5 6 5 1 3 3 1 2 3 4 5 6 8 7 3 4 5 4 8 9 8 9 5 5 9 6 3 7 7 6 8 8 6 7 8 7 8
2 3 1 14 30 23 6 3 4 4 5 3 3 5 3 2 4 6 7 6 5 4 4 5 7 9 9 7 6 7 6 5 7 9 8 6 7 10 13 17 15 7 1 2 2 1 4 2 1 2 4 4 5 5 4 2 1 1 3 5 7 9 8 7 5 3 6 8 9 10 8 6 9 9 8 13 15 14 15 13 10 11 10 7 7 8 8 9
2 3 1 9 20 13 4 4 5 5 6 8 9 9 7 5 6 10 13 10 7 6 5 4 5 6 6 5 6 7 10 9 7 6 6 5 5 6 9 12 12 7 5 7 8 4 3 2 1 2 5 6 6 6 6 4 2 1 3 6 10 13 13 10 8 7 9 10 11 11 9 10 13 16 19 22 24 23 21 19 15 11 9 9 9 8 9 9
1 3 2 4 8 6 4 4 6 6 6 8 8 8 11 11 7 9 11 10 10 11 8 5 2 3 4 7 8 9 10 11 9 6 5 5 4 4 8 12 11 11 11 11 10 4 2 4 7 10 11 10 11 10 7 4 5 5 6 9 10 11 13 11 8 9 10 10 11 12 15 17 16 17 22 25 26 26 24 21 17 11 9 11 10 9 9 10
1 3 3 2 3 4 5 5 7 8 7 8 6 5 10 14 8 6 8 9 9 10 8 7 8 9 8 9 11 11 11 12 12 11 8 8 7 6 7 8 9 13 14 10 10 5 3 6 12 16 18 17 17 18 15 13 14 14 14 15 15 13 12 11 11 12 11 9 12 15 19 21 18 18 23 25 26 26 23 19 16 13 11 10 9 10 10 10
2 2 3 2 1 4 5 4 5 6 6 8 6 5 10 14 11 7 6 6 7 8 5 6 11 16 16 15 13 10 10 10 11 12 11 10 10 9 9 9 11 14 13 8 7 6 4 7 12 16 21 22 21 22 21 19 19 19 19 20 21 20 17 16 17 18 16 15 16 17 19 22 18 18 22 24 25 25 22 19 18 16 16 13 10 9 10 12
2 2 3 3 2 3 4 2 3 4 5 5 3 4 7 9 9 7 3 2 4 6 8 9 12 16 18 19 15 12 11 11 12 12 10 10 12 10 9 10 11 12 12 9 6 5 4 7 12 17 20 21 22 22 23 23 22 22 22 23 23 23 23 22 21 23 23 23 22 21 23 23 18 16 20 22 23 21 17 18 20 20 24 22 14 11 12 15
1 2 2 3 2 4 5 4 4 5 4 4 4 4 4 5 8 8 4 2 4 3 6 11 11 10 11 12 13 14 13 11 13 11 7 7 8 7 6 8 7 6 8 7 5 5 7 9 11 14 14 14 18 21 23 24 24 24 26 25 25 25 25 24 23 22 22 23 24 24 24 21 16 18 22 22 21 18 16 20 23 24 28 28 19 15 15 15
2 2 1 1 2 4 4 2 2 3 4 5 5 5 5 5 5 6 5 5 7 7 6 8 10 9 9 9 10 10 9 10 12 12 11 12 9 5 5 5 6 4 3 5 3 4 6 7 6 8 8 10 15 20 23 24 25 25 25 24 25 25 23 23 22 20 20 22 23 23 18 16 16 20 22 21 21 20 20 23 24 25 28 27 21 18 16 14
4 3 1 1 3 5 4 2 2 3 4 5 4 3 4 5 5 6 5 4 4 4 5 8 10 8 8 10 9 8 10 11 12 13 13 13 13 11 10 9 9 7 4 4 3 3 5 5 5 7 8 9 14 19 21 19 17 16 18 24 28 28 25 24 21 21 23 20 18 17 16 18 19 18 17 18 20 22 22 22 23 24 24 22 19 18 17 15
Wind_Direction
4 4 2 3 3 3 4 5 6 7 10 9 9 7 6 6 4 1 357 356 355 355 355 354 356 349 340 338 329 311 296 285 283 275 251 261 272 268 268 257 236 236 236 190 183 184 179 191 218 214 214 238 186 202 215 185 109 63 91 170 246 232 224 210 218 239 188 231 247 246 203 165 235 274 299 330 276 238 233 247 249 263 286 66 135 144 148 157
357 356 355 355 354 355 356 356 358 358 1 2 4 3 1 2 0 359 356 353 351 350 350 349 351 348 342 337 331 324 308 293 289 274 261 266 264 255 254 249 251 250 235 191 177 184 172 191 226 208 151 196 218 184 188 217 122 123 151 198 235 215 228 233 239 261 269 227 209 230 219 182 206 208 131 242 260 255 237 254 238 249 270 76 123 141 149 156
350 349 349 349 349 349 349 348 349 349 352 354 356 357 356 355 355 357 354 350 348 348 347 345 346 347 344 335 335 335 319 312 299 273 271 270 253 240 233 236 250 250 232 193 179 199 207 248 240 191 150 227 246 154 167 252 195 182 169 223 245 223 249 277 276 266 259 217 178 231 221 196 228 189 136 222 256 255 228 235 210 231 239 189 151 149 154 161
344 344 343 344 345 344 343 343 342 342 344 345 348 350 349 348 348 350 350 348 344 344 344 343 341 341 343 337 335 333 339 351 292 267 298 284 249 234 223 224 234 237 226 196 202 221 241 281 281 172 155 235 266 127 170 224 206 188 167 207 238 222 271 276 274 260 218 140 150 226 326 253 248 173 170 185 256 265 233 222 212 223 229 196 177 169 165 168
338 338 339 340 339 339 339 338 337 337 337 338 340 343 344 343 342 343 345 344 341 341 340 338 335 333 338 338 331 330 8 14 288 303 337 309 242 228 220 220 217 220 218 205 215 218 250 273 324 57 145 231 275 109 214 218 179 201 210 216 234 231 270 269 264 240 173 100 133 300 290 251 241 176 197 178 221 254 222 211 217 222 229 195 180 182 175 176
335 335 336 336 335 334 333 334 333 333 332 333 334 335 339 338 337 339 340 340 338 338 336 335 331 328 335 338 330 360 53 318 269 308 332 330 237 218 212 217 211 210 211 202 201 182 245 256 71 42 194 231 238 218 243 230 168 224 251 231 238 234 248 266 269 247 208 196 216 228 236 223 271 264 230 198 227 244 208 193 209 217 228 203 183 177 181 188
332 334 334 334 333 331 331 331 329 328 328 327 328 329 331 331 332 333 335 337 334 334 335 332 326 321 326 332 340 56 89 252 265 280 298 307 236 211 202 213 210 206 203 190 181 173 201 209 207 199 197 250 231 222 255 265 177 214 258 268 258 247 245 263 277 257 216 214 223 219 288 256 241 261 267 228 236 245 238 225 222 223 218 188 178 179 190 195
329 332 333 333 332 331 331 330 328 326 324 324 323 322 323 325 324 325 329 331 330 331 333 328 321 313 282 196 147 27 23 252 266 271 272 262 219 204 200 209 209 206 201 194 188 175 172 202 226 206 229 252 231 244 272 326 234 219 244 268 269 261 261 277 290 264 232 229 224 239 275 242 224 264 297 257 248 247 242 243 246 243 223 172 177 191 196 201
328 331 332 331 332 332 331 330 329 326 323 323 321 319 319 319 318 317 320 323 326 326 330 327 314 299 254 196 109 11 260 243 261 259 247 228 210 203 203 206 206 206 205 209 204 188 166 201 225 197 208 242 252 279 291 354 271 228 235 267 279 276 279 289 290 272 252 242 185 217 259 246 226 289 285 262 251 247 242 241 243 239 237 215 194 196 197 204
328 331 332 331 332 333 331 330 328 325 323 320 319 318 317 317 316 313 310 313 318 319 326 324 303 276 236 194 105 316 257 242 251 241 226 218 209 206 207 208 207 206 209 220 218 207 188 201 215 169 184 242 255 274 279 199 238 247 269 288 279 281 288 275 274 271 261 252 192 208 256 261 208 173 267 265 246 222 231 243 244 232 238 229 210 206 199 204
329 331 332 334 334 333 333 331 327 325 321 318 318 316 316 318 317 312 306 304 307 311 316 315 294 244 213 166 134 227 254 243 242 228 214 213 209 212 213 213 211 209 216 236 236 226 216 219 185 130 203 246 261 293 285 237 263 294 331 314 288 295 300 273 267 268 255 255 203 191 255 281 161 182 244 256 239 163 219 241 246 232 238 232 219 217 204 210
330 332 334 337 336 335 336 333 330 328 322 319 317 315 316 317 316 311 304 300 300 304 304 292 262 218 205 173 205 237 252 243 241 231 215 211 208 214 216 217 219 216 218 232 248 238 231 234 166 158 239 226 305 303 271 253 330 298 14 317 289 310 297 272 267 255 217 220 178 148 280 283 230 222 240 250 248 225 241 251 250 235 237 234 227 223 214 223
331 332 335 336 334 334 337 335 333 331 325 322 319 319 319 317 316 310 302 296 294 298 291 270 242 210 201 260 238 239 245 240 238 232 220 213 207 213 216 216 221 222 222 226 243 245 237 233 181 189 237 189 252 274 247 331 342 289 345 254 282 320 291 268 263 238 211 197 150 129 271 267 241 236 242 252 253 242 249 254 249 242 241 235 232 230 228 229
331 327 329 331 329 333 335 334 335 333 328 327 324 323 322 319 314 305 298 289 289 295 281 249 222 194 188 253 257 242 237 234 231 227 219 209 199 204 213 211 216 222 225 232 240 250 245 231 159 178 271 186 241 302 341 342 310 275 302 236 261 295 275 270 250 163 188 201 154 140 220 258 257 251 246 252 246 233 239 249 247 241 242 239 233 232 237 235
325 319 323 326 327 332 334 334 336 335 332 328 324 324 323 319 311 302 292 281 281 282 262 225 196 165 78 270 265 248 228 223 227 226 221 210 198 197 203 203 208 212 218 229 235 239 218 181 117 143 282 274 281 317 330 330 299 224 242 277 265 210 263 283 270 181 191 228 161 149 202 257 262 264 258 249 235 226 230 245 249 243 241 241 239 235 239 244
318 317 322 325 326 332 332 333 337 335 331 327 322 322 321 317 310 297 286 281 277 260 233 201 193 183 309 277 259 249 220 215 225 222 217 211 208 203 188 182 187 189 197 212 209 197 167 135 138 165 206 295 138 129 18 344 306 265 201 250 260 227 265 294 289 221 183 167 183 191 209 255 262 267 270 260 227 221 225 243 248 245 244 239 241 239 238 247
318 320 323 325 328 332 331 332 336 333 329 326 321 320 320 316 305 292 285 280 275 233 198 175 179 186 261 275 274 262 211 204 211 205 203 206 208 195 171 159 173 170 154 167 172 160 151 137 172 157 97 244 166 118 59 293 269 275 206 235 256 245 260 277 293 288 157 148 201 220 228 250 257 265 281 286 245 218 220 240 246 245 247 241 241 240 239 245
321 323 327 330 333 335 332 332 335 333 330 324 321 321 318 310 300 293 272 184 119 117 196 251 48 161 252 244 240 232 178 193 196 193 200 197 190 184 173 157 147 138 105 84 184 149 160 161 137 157 291 235 183 142 175 232 241 233 197 222 255 249 254 256 269 261 152 170 208 219 235 250 259 264 270 273 263 241 228 236 248 248 249 248 246 241 239 243
324 329 334 337 343 342 337 337 338 337 334 326 325 323 314 308 308 322 136 144 124 98 209 227 178 170 256 236 216 174 142 172 176 188 197 186 182 184 183 177 120 123 115 155 223 167 154 117 107 144 238 229 206 184 205 227 234 223 219 232 245 249 258 258 264 229 172 198 220 219 234 244 254 258 257 261 261 257 250 243 250 252 253 255 252 248 244 243
326 333 338 342 349 349 346 346 345 345 341 336 338 339 333 348 351 24 85 165 213 233 252 204 191 225 286 259 156 143 144 159 175 199 190 181 175 166 179 163 85 121 175 162 194 181 157 174 169 188 225 229 208 199 219 234 247 255 256 260 255 255 264 262 268 253 185 200 230 224 236 244 250 255 252 254 256 257 257 249 245 246 249 254 255 256 254 248
328 335 342 347 352 355 354 351 351 354 351 350 356 2 47 35 319 304 329 275 252 251 259 238 214 232 257 218 163 166 160 184 231 218 183 178 160 150 190 159 127 215 204 168 203 218 165 192 204 211 226 229 197 200 221 233 241 249 252 260 262 252 262 262 264 264 201 199 250 240 244 250 251 257 256 249 241 247 251 248 249 246 244 251 255 258 257 254
326 331 340 347 353 358 356 354 1 7 2 4 14 31 66 29 360 223 307 288 276 255 252 253 241 242 247 243 206 184 171 225 242 220 178 174 162 177 193 158 178 207 168 161 251 255 210 222 222 219 232 242 220 210 214 226 231 240 245 256 262 251 268 269 256 263 220 188 256 253 249 253 252 258 258 245 232 238 244 244 249 249 247 253 254 255 259 260
316 320 331 340 348 355 355 357 12 14 4 3 15 31 15 6 25 81 166 262 289 261 242 241 240 236 231 244 217 185 201 223 227 218 179 170 173 196 173 175 198 177 146 185 214 226 226 232 225 219 224 235 241 234 219 238 242 236 239 249 257 248 263 268 250 264 238 208 257 267 262 257 255 265 261 245 236 240 246 246 251 251 249 253 252 255 260 260
307 312 320 331 340 351 354 354 6 4 356 357 13 18 4 350 333 5 340 244 276 257 240 228 227 224 220 230 196 184 217 222 210 210 180 170 156 170 179 186 185 180 201 205 212 228 239 228 204 203 208 221 240 240 218 236 256 243 234 234 249 245 243 253 268 316 300 273 287 291 288 271 234 247 256 247 235 241 247 249 255 254 249 254 257 256 257 258
300 303 309 323 332 347 350 348 355 353 351 10 21 2 359 346 320 354 360 282 277 270 270 236 222 226 222 218 179 180 248 248 214 198 177 175 159 149 204 183 170 214 220 219 225 239 248 232 174 186 209 217 232 240 206 196 247 257 232 216 237 245 245 256 289 335 319 294 292 243 287 279 209 220 247 249 228 238 241 240 247 251 250 254 258 256 253 254
291 293 300 311 319 340 349 348 342 344 351 41 358 345 347 339 321 335 10 311 277 255 284 213 192 207 208 192 155 138 353 284 269 137 166 181 178 156 198 184 189 227 208 215 240 241 242 223 185 197 214 211 222 245 209 188 231 267 229 201 226 242 254 264 281 307 268 265 271 119 266 283 258 216 233 231 221 233 234 231 239 244 247 247 250 254 253 250
281 281 288 295 304 329 343 326 330 338 356 334 332 333 333 330 317 311 8 326 285 182 130 248 330 113 166 198 146 125 236 262 19 77 159 186 200 159 206 208 198 215 169 156 263 238 211 205 197 210 215 205 215 240 214 183 212 266 230 185 207 228 250 253 236 228 235 273 283 148 132 281 282 244 203 205 211 228 236 237 241 240 240 244 247 252 254 246
275 274 275 275 282 297 298 303 320 326 315 322 330 329 330 331 313 329 57 297 282 101 109 259 5 36 24 332 272 138 204 281 80 308 335 41 215 133 217 222 192 197 161 157 233 248 167 185 206 205 204 209 218 229 199 172 205 252 134 160 165 186 221 166 173 232 301 333 284 205 138 256 280 254 183 198 206 221 237 234 236 237 235 242 246 248 254 251
271 268 266 264 267 268 270 277 280 281 305 329 337 326 330 330 313 53 79 255 269 71 66 347 67 313 17 29 282 262 26 9 88 285 342 30 286 66 214 228 190 238 252 195 229 259 143 199 201 172 182 216 216 220 172 174 218 231 112 99 68 70 62 77 147 204 39 304 261 194 148 222 278 265 164 181 203 214 235 233 235 237 234 240 246 250 256 255
275 268 262 253 250 254 255 253 250 260 301 331 341 332 326 316 4 74 244 249 300 327 64 56 304 336 83 117 271 293 313 336 360 344 354 73 348 7 288 250 107 248 289 287 260 254 230 221 194 164 186 196 142 83 110 176 223 147 90 52 26 8 27 54 13 72 50 276 239 177 177 192 271 279 144 167 203 199 212 227 242 249 246 247 249 251 255 253
283 277 263 244 240 244 231 235 246 239 261 331 355 358 338 329 72 159 236 243 346 287 77 28 261 91 121 159 281 287 206 309 25 117 265 39 17 17 347 291 73 51 318 297 279 264 257 263 224 213 177 126 103 94 351 9 41 82 91 71 18 326 11 28 358 58 220 265 217 180 183 184 235 264 144 230 260 204 200 207 227 241 243 246 248 249 252 246
281 281 270 252 243 237 222 235 242 209 204 131 64 54 50 51 210 225 241 10 350 235 154 193 198 149 189 205 308 224 174 256 212 168 179 162 170 195 207 218 162 82 288 252 267 285 264 237 212 203 175 149 134 134 342 351 26 105 113 105 62 298 341 354 318 74 221 258 226 190 181 201 241 253 232 273 284 236 210 205 214 223 232 241 244 249 253 237
273 277 273 259 246 236 232 238 231 204 201 155 113 76 79 133 231 226 221 292 234 216 133 172 182 169 162 136 245 208 178 235 196 176 190 155 184 243 257 244 192 192 250 228 273 308 286 274 201 151 272 184 156 175 235 275 184 160 150 146 164 214 249 265 263 266 259 262 251 191 165 240 279 276 214 233 243 233 215 211 220 218 222 231 231 245 258 229
272 270 267 261 252 245 240 234 222 211 197 143 116 77 107 192 250 237 199 216 235 274 304 152 150 175 174 191 218 178 180 240 179 164 194 145 166 247 250 239 216 213 210 198 277 191 249 291 198 161 222 187 174 202 208 169 159 183 160 146 174 182 180 207 235 252 270 286 280 190 161 238 296 280 213 221 244 250 227 219 226 228 233 238 241 257 263 232
280 268 262 256 247 243 237 225 216 210 186 132 100 95 162 217 244 227 224 235 256 285 288 331 109 180 233 249 235 197 210 242 172 154 186 179 192 210 202 211 203 192 155 195 254 176 216 270 228 175 179 165 178 211 191 130 129 220 130 119 214 201 186 222 257 240 234 319 290 221 199 240 254 260 247 238 255 264 253 244 244 253 253 250 259 263 253 213
291 276 259 242 235 236 230 218 210 201 177 131 113 181 212 230 205 167 206 218 222 289 308 317 132 193 253 264 252 242 226 237 187 159 206 210 211 214 200 198 193 189 187 196 229 206 230 276 249 171 18 163 178 206 175 161 197 189 131 179 212 167 166 217 280 286 142 267 273 242 240 278 311 290 272 260 267 270 282 280 253 243 247 244 252 257 237 201
305 278 244 232 234 236 228 217 206 192 170 141 183 209 226 240 206 189 226 256 248 338 350 304 240 209 251 259 253 249 231 239 201 171 207 218 223 216 207 215 192 191 202 210 228 236 235 265 243 175 227 250 183 112 296 256 154 130 174 210 180 67 120 165 235 315 271 249 268 269 264 281 305 287 307 12 339 288 260 249 239 241 247 251 256 256 239 215
309 267 248 245 241 235 224 210 193 173 146 165 217 226 223 223 202 194 263 325 297 299 308 262 245 234 247 256 266 259 218 218 191 179 203 214 230 199 182 217 201 194 211 217 231 263 238 253 262 166 176 278 64 108 281 299 127 138 202 201 114 141 228 162 170 211 240 244 257 272 276 275 251 256 296 311 277 261 252 245 247 254 250 247 256 260 252 222
290 266 267 239 219 222 210 193 175 155 143 191 219 232 218 225 234 208 236 319 299 277 259 235 224 230 245 251 258 246 208 209 198 209 219 211 234 200 161 221 228 209 216 211 214 251 241 242 259 3 28 312 35 188 210 222 296 53 360 340 66 180 188 184 181 171 220 241 250 266 277 273 247 222 205 239 241 242 259 271 267 261 257 256 262 271 267 233
233 248 265 150 175 199 188 173 157 152 193 198 216 228 228 267 274 243 230 222 212 238 243 248 248 244 259 279 279 237 231 239 216 258 258 236 252 246 126 25 348 315 254 220 219 239 220 236 243 323 354 287 207 210 185 178 196 178 216 256 253 227 183 234 237 179 211 234 238 245 256 266 262 181 167 209 195 187 215 253 273 268 273 273 267 264 258 235
210 240 238 153 174 177 163 153 157 181 202 228 229 230 236 249 257 258 250 223 220 221 190 266 279 270 275 291 282 253 296 331 306 260 287 282 280 285 84 74 42 5 334 285 245 256 223 235 237 217 224 239 242 221 185 186 186 176 198 214 216 224 231 255 249 226 221 238 236 237 248 260 261 152 150 181 157 179 200 195 233 241 240 254 256 242 233 227
231 241 184 165 173 164 149 156 214 170 195 225 226 235 218 208 234 244 240 216 203 210 201 228 243 246 246 245 245 237 239 261 240 229 228 233 254 264 279 331 6 18 349 292 263 296 345 228 251 248 229 245 269 267 193 200 195 178 198 204 208 220 216 233 243 239 244 249 242 248 252 256 258 269 312 281 262 265 270 249 242 251 252 264 275 271 261 251
227 246 153 171 173 162 147 228 207 192 229 215 252 250 197 197 237 232 226 214 202 200 201 206 210 222 229 225 220 214 206 219 219 223 231 238 247 249 263 288 302 329 359 311 305 333 346 360 263 270 274 288 308 333 344 200 172 166 233 199 207 227 222 235 252 277 270 247 240 254 250 256 274 292 318 300 297 306 288 274 263 272 272 265 268 276 276 267
245 268 185 180 179 170 161 219 198 225 232 233 264 244 235 255 233 238 239 216 196 200 218 221 212 219 223 212 207 202 195 216 231 225 224 230 241 243 255 275 283 290 302 185 171 319 307 322 10 296 282 295 312 309 288 265 160 200 232 209 218 232 235 249 267 279 265 253 252 264 263 262 282 295 299 290 285 279 274 267 259 263 263 246 240 250 256 262
292 258 257 190 191 192 215 216 212 227 220 231 241 235 246 249 212 228 240 236 219 210 224 238 224 233 232 210 217 214 201 213 235 227 209 213 243 254 247 249 252 249 220 176 159 171 216 202 167 230 241 242 243 247 245 233 210 239 241 224 224 228 231 240 250 245 246 245 243 253 261 261 268 281 283 278 275 273 270 269 266 259 249 243 243 246 253 259
304 257 242 196 203 222 246 225 228 232 217 228 236 226 231 239 232 223 229 243 241 227 234 255 257 266 238 213 233 240 223 221 225 219 208 213 238 248 229 227 228 232 219 169 144 148 169 179 206 218 224 232 237 242 247 241 242 253 251 243 236 234 234 235 239 241 242 243 241 239 245 253 255 260 267 269 271 272 271 273 274 263 243 246 250 244 242 245
264 264 241 211 209 224 231 228 228 226 217 219 222 205 222 235 244 222 208 221 227 221 234 241 227 233 232 221 235 241 234 231 227 225 226 223 235 256 248 237 233 236 228 184 151 150 158 197 214 220 226 232 238 245 251 254 253 251 250 251 250 244 238 234 235 240 241 246 247 236 237 247 248 245 254 262 266 270 273 276 277 272 259 249 242 240 240 245
246 264 273 301 278 225 229 230 238 243 236 230 222 218 235 237 231 219 215 224 218 202 211 231 222 225 230 233 242 248 241 240 235 230 231 231 238 257 261 248 238 235 234 217 173 162 191 219 216 224 230 229 232 239 242 245 249 248 247 249 250 248 243 240 242 242 239 242 250 246 242 246 245 240 246 253 259 265 273 279 281 281 276 261 241 236 245 255
285 274 298 343 338 260 269 317 329 305 278 268 257 229 244 251 247 253 272 275 248 208 208 230 226 222 228 230 235 242 236 237 240 229 222 224 224 233 252 254 245 229 223 230 214 178 216 231 215 226 237 232 230 233 236 240 245 248 247 245 246 249 248 245 246 246 246 249 255 257 254 251 249 246 248 251 257 264 275 282 283 282 279 271 255 242 251 264
300 271 302 355 326 280 297 314 322 318 301 285 270 241 248 266 270 288 305 261 278 276 229 243 253 254 255 248 244 247 246 257 268 264 268 267 238 224 242 250 252 233 207 220 233 198 215 227 217 230 244 239 233 233 233 235 239 243 245 245 245 248 249 248 248 248 251 254 254 253 255 256 255 255 255 257 262 268 271 273 275 275 273 273 271 264 262 268
343 334 314 324 285 268 279 286 314 318 284 248 243 254 271 278 289 318 310 240 243 268 271 292 316 327 319 303 286 283 300 313 306 308 317 307 289 277 271 255 261 268 200 200 222 200 212 233 232 239 251 240 233 235 233 233 236 238 241 245 246 244 243 242 241 241 243 248 253 253 254 255 250 249 253 257 261 264 263 262 264 265 267 273 280 279 275 271
356 345 336 349 276 258 259 285 287 273 262 251 262 289 296 310 348 354 320 273 262 293 324 342 340 335 321 312 310 314 318 308 297 299 299 290 285 280 272 262 253 250 237 230 236 187 200 232 236 234 250 245 233 235 236 233 235 234 229 233 237 238 238 240 241 242 241 241 247 250 246 246 246 245 247 251 253 255 255 254 256 260 266 275 280 278 274 267